#timestamp,LO_Frequency,Hit,StdDev 
1569942015.8,286046997.7,N
1569942035.7,286046996.7,N
1569942055.5,286046995.2,N
1569942075.3,286046997.0,N
1569942095.2,286046995.6,N
1569942115.0,286046997.0,N
1569942115.9,286046997.0,N
1569942135.7,286046997.9,N
1569942155.6,286046993.3,Y
1569942175.4,286046996.8,P
1569942195.3,286046997.7,P
1569942215.1,286046996.6,P
1569942235.8,286046998.8,N
1569942255.7,286046998.1,N
1569942275.5,286046996.7,Y
1569942295.4,286047004.1,P
1569942345.2,286047001.5,E
1569942355.1,286046999.9,N
1569942375.9,286046999.3,P
1569942395.7,286046997.4,P
1569942415.6,286046998.9,N
1569942435.4,286046996.7,Y
1569942455.2,286046998.1,P
1569942475.1,286046998.8,P
1569942476.0,286046998.8,P
1569942495.8,286047001.1,Y
1569942515.7,286046996.9,P
1569942535.5,286046994.9,P
1569942555.3,286047001.2,N
1569942575.2,286046999.6,N
1569942595.9,286046996.6,N
1569942615.7,286046998.7,N
1569942635.6,286047001.0,N
1569942655.4,286047002.1,N
1569942675.3,286046999.6,N
1569942695.1,286046999.2,N
1569942696.0,286046999.2,N
1569942715.8,286046997.6,N
1569942735.7,286046997.9,N
1569942755.5,286046999.3,N
1569942775.3,286046997.4,N
1569942795.2,286047001.2,N
1569942815.0,286046997.7,N
1569942815.9,286046997.7,N
1569942835.8,286046996.9,N
1569942855.6,286046997.2,N
1569942875.4,286046995.8,N
1569942895.3,286046999.6,N
1569942915.1,286046993.6,Y
1569942935.9,286046996.1,P
1569942955.7,286046996.0,P
1569942975.5,286046993.4,P
1569942995.4,286046993.5,Y
1569943015.2,286046997.8,P
1569943035.0,286046997.9,N
1569943035.9,286046997.9,N
1569943055.8,286046997.4,Y
1569943075.6,286046999.4,P
1569943095.5,286046997.7,N
1569943115.3,286046996.7,P
1569943135.1,286046999.2,N
1569943155.9,286046999.6,N
1569943175.7,286046999.6,N
1569943195.5,286046998.8,N
1569943215.4,286046998.1,N
1569943235.2,286046999.2,N
1569943255.1,286046999.6,N
1569943256.0,286046999.6,N
1569943275.8,286046998.9,N
1569943295.6,286046999.5,N
1569943315.5,286046998.1,N
1569943335.3,286046999.6,N
1569943355.1,286046997.8,N
1569943375.9,286046999.5,N
1569943395.7,286046998.9,N
1569943415.6,286046999.3,N
1569943435.4,286046997.7,N
1569943455.2,286046997.6,N
1569943475.1,286046997.7,N
1569943476.0,286046997.7,N
1569943495.8,286046997.1,Y
1569943515.7,286047000.9,P
1569943535.5,286047000.5,N
1569943555.3,286046999.2,N
1569943575.2,286046997.2,Y
1569943595.0,286046996.7,P
1569943595.9,286046996.7,N
1569943615.7,286047001.0,N
1569943635.6,286047000.4,N
1569943655.4,286046998.5,N
1569943675.3,286046999.0,N
1569943695.1,286046998.6,N
1569943696.0,286046998.6,N
1569943715.8,286046999.5,N
1569943735.7,286046997.7,N
1569943755.5,286046996.5,N
1569943775.3,286046997.2,N
1569943795.2,286046999.1,N
1569943815.0,286046998.9,N
1569943815.9,286046998.9,N
1569943835.8,286046997.6,N
1569943855.6,286046998.0,N
1569943875.4,286046997.7,N
1569943895.3,286046997.7,N
1569943915.1,286046995.5,Y
1569943935.9,286046999.1,P
1569943955.7,286046999.4,N
1569943975.5,286046998.8,N
1569943995.4,286046999.6,N
1569944015.2,286046998.9,N
1569944035.0,286046998.5,Y
1569944035.9,286046998.5,P
1569944055.8,286046998.9,P
1569944075.6,286047001.0,P
1569944095.5,286046999.7,N
1569944115.3,286047004.0,Y
1569944135.1,286047003.7,P
1569944155.9,286047003.2,N
1569944175.7,286047003.4,N
1569944195.5,286047001.8,N
1569944215.4,286047005.4,Y
1569944235.2,286047002.9,P
1569944255.1,286047005.2,P
1569944256.0,286047005.2,P
1569944275.8,286047004.4,Y
1569944295.6,286047000.8,P
1569944315.5,286047000.1,N
1569944335.3,286047000.2,N
1569944355.2,286047000.9,N
1569944375.9,286046996.6,N
1569944395.7,286046999.6,N
1569944415.6,286046999.2,N
1569944435.4,286046998.6,N
1569944455.2,286046997.0,N
1569944475.1,286046996.6,N
1569944476.0,286046996.6,N
1569944495.8,286046996.8,N
1569944515.7,286046999.0,N
1569944535.5,286046999.5,N
1569944555.3,286046995.3,N
1569944575.2,286046995.1,N
1569944595.9,286046996.0,N
1569944615.7,286046993.4,N
1569944635.6,286046993.5,N
1569944655.4,286046993.5,N
1569944675.2,286046992.2,N
1569944695.1,286046992.2,N
1569944696.0,286046992.2,N
1569944715.8,286046992.5,N
1569944735.7,286046990.2,Y
1569944755.5,286046997.5,P
1569944775.3,286046997.9,P
1569944795.2,286046994.9,P
1569944815.0,286046998.0,N
1569944815.9,286046998.0,N
1569944835.8,286046998.0,N
1569944855.6,286046997.7,N
1569944875.4,286046997.5,N
1569944895.3,286046997.0,Y
1569944915.1,286046999.7,P
1569944935.8,286046999.9,N
1569944955.7,286047001.3,N
1569944975.5,286047003.0,N
1569944995.4,286047004.4,N
1569945015.2,286047003.4,N
1569945035.0,286047003.7,N
1569945035.9,286047003.7,N
1569945055.8,286047001.7,N
1569945075.6,286047000.0,N
1569945095.4,286047002.0,N
1569945115.3,286047002.4,N
1569945135.1,286046999.9,N
1569945155.9,286046998.1,N
1569945175.7,286047000.4,N
1569945195.5,286047004.3,N
1569945215.4,286047000.7,N
1569945235.2,286046998.1,N
1569945255.0,286046998.8,N
1569945255.9,286046998.8,N
1569945275.8,286046998.2,N
1569945295.6,286046998.2,N
1569945315.5,286047000.5,N
1569945335.3,286047000.8,N
1569945355.1,286046998.7,N
1569945375.9,286046998.1,N
1569945395.7,286046998.1,N
1569945415.5,286047001.0,N
1569945435.4,286047000.0,N
1569945455.2,286047000.3,N
1569945475.1,286047000.9,N
1569945476.0,286047000.9,N
1569945495.8,286047002.6,N
1569945515.6,286047000.7,N
1569945535.5,286046998.5,N
1569945555.3,286047000.2,N
1569945575.1,286047002.3,N
1569945595.9,286047000.3,N
